Regional Weather Roundup
Issued by NWS

Home | Current Version | Previous Version | Text Only | Print | Product List | Glossary On
Versions: 1 2 3 4 5 6 7 8 9 10 11 12 13 14 15 16 17 18 19 20 21 22 23 24 25 26 27 28 29 30 31 32 33 34 35 36 37 38 39 40 41 42 43 44 45 46 47 48 49 50
000
ASUS43 KMPX 011210
RWRMN
WEATHER ROUNDUP FOR MINNESOTA
NATIONAL WEATHER SERVICE TWIN CITIES/CHANHASSEN MN
600 AM CST MON MAR 01 2021


NOTE: "FAIR" INDICATES FEW OR NO CLOUDS BELOW 12,000 FEET WITH NO
SIGNIFICANT WEATHER AND/OR OBSTRUCTIONS TO VISIBILITY. N/A MEANS
CURRENT SKY AND/OR WEATHER CONDITIONS ARE NOT AVAILABLE.

MNZ060>063-068>070-011300-
   Twin Cities Metro

CITY           SKY/WX    TMP DP  RH WIND       PRES   REMARKS
TWIN CITIES    PTCLDY    15   9  76 N10       30.24R WCI   2
6HR MIN TEMP:  14; 6HR MAX TEMP:  21; 6HR PCP:  0.04;

ST PAUL        MOCLDY    14   9  80 N13       30.26R WCI   0
CRYSTAL        PTCLDY    13   7  77 N8        30.24R WCI   2
BLAINE         PTCLDY    14  10  85 N7        30.24R WCI   4
LAKEVILLE      MOCLDY    16   9  73 N7        30.23R WCI   6
EDEN PRAIRIE   PTCLDY    14   9  80 N6        30.23R WCI   5
6HR MIN TEMP:  14; 6HR MAX TEMP:  21; 6HR PCP:  0.02;

SOUTH ST PAUL  MOCLDY    16  11  81 N6        30.24R WCI   7
$$
MNZ001>005-007-008-013>017-022>024-027-028-011300-
   Northwest Minnesota

CITY           SKY/WX    TMP DP  RH WIND       PRES   REMARKS
BEMIDJI        CLEAR     -7 -14  71 NW5       30.29R WCI -18
HALLOCK        CLEAR     -9 -17  70 CALM      30.41R
ROSEAU         CLEAR     -6 -20  49 W5        30.36R WCI -17
WARROAD        CLEAR    -11 -18  70 W7        30.35R WCI -26
THIEF RVR FALL CLEAR     -7 -15  68 N6        30.36R WCI -20
CROOKSTON      CLEAR     -4 -11  71 N9        30.40R WCI -20
FOSSTON          N/A    N/A N/A N/A MISG        N/A
DETROIT LAKES  PTCLDY    -2  -8  78 NW7       30.30R WCI -16
MOORHEAD       CLEAR      1  -8  66 N10       30.37R WCI -14
PARK RAPIDS    CLEAR     -3  -8  79 N7        30.26R WCI -16
MAHNOMEN       FAIR      -2  -8  74 N5        30.32R WCI -12
$$
MNZ006-009>011-018-025>026-011300-
   North Central Minnesota

CITY           SKY/WX    TMP DP  RH WIND       PRES   REMARKS
BAUDETTE       CLEAR    -10 -18  67 NW6       30.31R WCI -23
FLAG ISLAND    CLEAR    -15 -20  76 NW6       30.32R WCI -29
INTL FALLS     CLEAR     -9 -16  71 NW3       30.28R
6HR MIN TEMP:  -9; 6HR MAX TEMP:   3;

WASKISH        CLEAR    -11 -18  70 NW3       30.31R
BIG FORK       CLEAR     -8 -17  65 CALM      30.31R
LONGVILLE      CLEAR      0  -9  65 NW3       30.27R
GRAND RAPIDS   CLEAR     -2 -12  62 N10       30.27R WCI -19
CRANE LAKE       N/A     -8 -17  65 CALM      30.29R
ORR            CLEAR     -8 -17  65 NW5       30.22R WCI -19
COOK           CLEAR     -6 -15  65 NW3       30.24R
WALKER         SUNNY     -2  -8  76 NW3       30.27R
$$
MNZ012-019>021-037-011300-
   Northeast Minnesota

CITY           SKY/WX    TMP DP  RH WIND       PRES   REMARKS
DULUTH         CLEAR      2  -9  60 NW9       30.18R WCI -13
6HR MIN TEMP:   2; 6HR MAX TEMP:  12;

ELY            CLEAR     -6 -17  59 NW7       30.20R WCI -20
HIBBING        CLEAR     -3 -13  62 NW14      30.22R WCI -22
EVELETH        CLEAR     -2 -13  59 N9        30.22R WCI -18
DULUTH HARBOR  CLEAR      7  -8  51 NW13      30.28R WCI  -9
TWO HARBORS    CLEAR      1 -11  55 NW6       30.20R WCI -10
SILVER BAY     CLEAR      0 -15  50 CALM      30.20R
GRAND MARAIS     N/A      1 -13  51 VRB5      30.22R WCI  -9
G MARAIS ARPRT CLEAR     -8 -17  65 W8G18     30.05R WCI -23
$$
MNZ029>031-032-039>041-046>048-054>057-064-011300-
   West Central Minnesota

CITY           SKY/WX    TMP DP  RH WIND       PRES   REMARKS
FERGUS FALLS   CLEAR      1  -4  78 N7        30.28R WCI -11
WHEATON        CLEAR      3  -4  72 NW8       30.35R WCI -10
MORRIS         CLEAR      7   0  72 N10       30.30R WCI  -8
ALEXANDRIA     CLEAR      4  -1  80 N8        30.26R WCI  -9
ELBOW LAKE     FAIR      -1  -4  86 N6        30.30R WCI -12
WADENA         CLEAR      1  -2  85 N7        30.27R WCI -11
GLENWOOD       CLEAR      7   3  85 N10       30.26R WCI  -8
APPLETON       CLEAR     12   7  79 N10       30.30R WCI  -1
BENSON         CLEAR      9   5  85 NE7       30.29R WCI  -3
ORTONVILLE     CLEAR     10   3  72 N16       30.30R WCI  -7
MADISON        CLEAR     12   9  85 N10       30.31R WCI  -1
WILLMAR        FAIR       9   3  78 N8        30.29R WCI  -4
$$
MNZ033>034-036-042>043-049>051-058-059-011300-
   Central Minnesota

CITY           SKY/WX    TMP DP  RH WIND       PRES   REMARKS
ST CLOUD       CLEAR      6   3  87 N7        30.26R WCI  -6
6HR MIN TEMP:   6; 6HR MAX TEMP:  19; 6HR PCP:  0.05;

SAUK CENTRE      N/A      7   2  82 N8        30.27R WCI  -6
PAYNESVILLE    CLEAR      9   7  92 N3        30.26R
AITKIN         CLEAR      3  -4  72 NW7       30.26R WCI  -9
PINE RIVER     CLEAR      3  -2  78 NW5       30.30R WCI  -6
BRAINERD       CLEAR      4  -3  73 N9        30.27R WCI -10
STAPLES        CLEAR      1  -4  78 NW5       30.28R WCI  -8
LONG PRAIRIE   FAIR       7   1  78 N7        30.27R WCI  -5
LITTLE FALLS   CLEAR      9   0  66 N3        30.28R
CAMP RIPLEY    FAIR       5  -2  75 N7        30.29R WCI  -7
LITCHFIELD     CLEAR      9   7  92 N6        30.26R WCI  -1
BUFFALO        CLEAR     10   7  87 MISG      30.27R
HUTCHINSON     CLEAR     12   9  87 N8        30.26R WCI   0
$$
MNZ037-044-045-052-053-011300-
   East Central Minnesota

CITY           SKY/WX    TMP DP  RH WIND       PRES   REMARKS
PRINCETON      FLURRIES  10   7  85 N5        30.26R WCI   2
MORA           CLEAR      7   1  78 N3        30.27R
CAMBRIDGE      CLEAR     10   1  67 NW5       30.26R WCI   2
RUSH CITY      CLEAR      9   2  72 N8        30.26R WCI  -3
MOOSE LAKE     PTCLDY     5  -4  66 CALM      30.23R
HINCKLEY       SUNNY     10   0  61 N5        30.25R WCI   2
CLOQUET        CLEAR      1  -9  60 NW8       30.20R WCI -12
MCGREGOR       CLEAR      5  -4  66 NW8       30.25R WCI  -8
$$
MNZ071>073-080-081-089-090-097-098-011300-
   Southwest Minnesota

CITY           SKY/WX    TMP DP  RH WIND       PRES   REMARKS
MONTEVIDEO     CLEAR     10   7  85 NE8       30.28R WCI  -1
GRANITE FALLS  CLEAR     15  11  85 N9        30.29R WCI   3
CANBY          FLURRIES  14  11  87 N9        30.29R WCI   2
MARSHALL       CLOUDY    16  13  88 N10       30.26R WCI   4
REDWOOD FALLS  PTCLDY    16  11  80 N8        30.25R WCI   5
OLIVIA         CLEAR     12   9  85 NE8       30.26R WCI   1
PIPESTONE        N/A     16  12  86 NE14G22   30.18R WCI   1
WINDOM         PTCLDY    18  16  93 N8        30.19R WCI   7
WORTHINGTON    MOCLDY    17  15  92 N13       30.19R WCI   4
JACKSON        MOCLDY    23  19  86 N18       30.18R WCI   9
TRACY          CLOUDY    18  13  82 N14       30.23R WCI   4
SLAYTON        PTCLDY    17  13  86 N15       30.19R WCI   2
$$
MNZ065>067-074>077-082>085-091>093-011300-
   South Central Minnesota

CITY           SKY/WX    TMP DP  RH WIND       PRES   REMARKS
MANKATO        FLURRIES  18  16  93 N10       30.23R WCI   6
NEW ULM        MOCLDY    18  12  79 N7G16     30.24R WCI   8
ST JAMES       CLOUDY    21  18  86 N9        30.21R WCI  11
FAIRMONT       FLURRIES  23  20  88 N18       30.19R WCI   9
GLENCOE        PTCLDY    11   8  87 N6        30.24R WCI   1
FARIBAULT      MIX PCPN  19  18  93 N6        30.21R WCI  11
OWATONNA       FLURRIES  19  16  86 N6        30.19R WCI  11
WASECA         LGT SNOW  19  18  93 N7        30.20R WCI  10
ALBERT LEA     LGT SNOW  19  18  93 N10       30.18R WCI   8
$$
MNZ078>079-086>088-094>096-011300-
   Southeast Minnesota

CITY           SKY/WX    TMP DP  RH WIND       PRES   REMARKS
ROCHESTER      LGT SNOW  18  14  84 N9        30.16R FOG     WCI   7
6HR MIN TEMP:  17; 6HR MAX TEMP:  19; 6HR PCP:  0.02;

RED WING       CLOUDY    18  14  86 N3        30.22R
STANTON        FLURRIES  17  14  87 N8        30.21R WCI   7
DODGE CENTER   LGT SNOW  18  16  93 N7        30.16R WCI   8
WINONA         LGT SNOW  21  19  93 NW7       30.21R WCI  13
PRESTON        LGT SNOW  18  15  88 N8        30.16R WCI   8
$$
ABBREVIATIONS USED IN REMARKS
   TC - TEMPERATURES IN CELSIUS
  WCI - WIND CHILL INDEX
   HX - HEAT INDEX
  VSB - VISIBILITY
$$




USA.gov is the U.S. government's official web portal to all federal, state and local government web resources and services.